Location: Sternwarte ZA, Rosenfeld-Brittheim
(48.2889°N, 8.6789°E)
Time: 19:57:33

ISS - Pass Details

Date: 15 March 2018
Orbit: 403 x 406 km, 51.6° (Epoch: 23 March)

Event Time Altitude Azimuth Distance (km) Brightness Sun altitude
Exits shadow 04:29:32 53° 37° (NE) 504 -3.2 -21.9°
Drops below altitude 10° 04:32:30 10° 93° (E) 1,465 -0.1 -21.4°
Sets 04:34:36 0° 98° (E) 2,323 1.0 -21.1°
